Weather History for Karlovy Vary, Czech Republic

Change the Weather History Date:

Sunday, May 25, 2014

  Actual Average (EDQM) Record (EDQM)
Temperature  
Mean Temperature 56 °F -  
Max Temperature 69 °F 62 °F 80 °F (2007)
Min Temperature 43 °F 46 °F 30 °F (1997)
Degree Days  
Heating Degree Days 9    
Growing Degree Days 6 (Base 50)    
Moisture  
Dew Point 46 °F    
Average Humidity 60    
Maximum Humidity 100    
Minimum Humidity 23    
Precipitation  
Precipitation 0.00 in - - ()
Sea Level Pressure  
Sea Level Pressure 30.13 in    
Wind  
Wind Speed 4 mph ()    
Max Wind Speed 12 mph    
Max Gust Speed -    
Visibility 6.2 miles    
Events Fog    
Averages and records for this station are not official NWS values.
T = Trace of Precipitation, MM = Missing Value Source: Averaged Metar Reports

Daily Weather History Graph

Daily Weather History Graph

Search for Another Location

Airport:

Trip Planner

Search our weather history database for the weather conditions in past years. The results will help you decide how hot, cold, wet, or windy it might be!

Date:

Astronomy

May. 25, 2014 Rise Set
Actual Time 5:09 AM CEST 9:01 PM CEST
Civil Twilight 4:28 AM CEST 9:43 PM CEST
Nautical Twilight 3:30 AM CEST 10:41 PM CEST
Astronomical Twilight 1:56 AM CEST 12:18 AM CEST
Moon 3:27 AM CEST (5/25) 5:24 PM CEST (5/25)
Length of Visible Light 17h 15m
Length of Day
15h 51m
Waning Crescent, 12% of the Moon is Illuminated
May 25
Waning Crescent
May 28
New
Jun 5
First Quarter
Jun 13
Full
Jun 19
Last Quarter

Hourly Weather History & Observations

Time (CEST) Temp. Windchill Dew Point Humidity Pressure Visibility Wind Dir Wind Speed Gust Speed Precip Events Conditions
12:00 AM 48 °F - 47 °F 96%  in 31 mi SSE 2.2 mph - - Fog Patches of Fog
12:00 AM 48.2 °F - 48.2 °F 100% 30.09 in 6.2 mi ESE 2.3 mph - N/A Fog Shallow Fog
1:00 AM 46 °F - 45 °F 93%  in 28 mi SW 2.2 mph - - Fog Patches of Fog
1:00 AM 48.2 °F - 46.4 °F 93% 30.09 in 6.2 mi Variable 2.3 mph - N/A Fog Shallow Fog
2:00 AM 47 °F - 47 °F 98%  in 25 mi WSW 6.7 mph - - Fog Patches of Fog
2:00 AM 46.4 °F 45.2 °F 46.4 °F 100% 30.12 in 6.2 mi East 3.5 mph - N/A Fog Shallow Fog
3:00 AM 46 °F - 46 °F 97%  in 25 mi WSW 4.5 mph - - Fog Patches of Fog
3:00 AM 46.4 °F - 46.4 °F 100% 30.12 in 6.2 mi Variable 1.2 mph - N/A Fog Shallow Fog
4:00 AM 46 °F - 44 °F 91%  in 31 mi WSW 6.7 mph - - Fog Patches of Fog
4:00 AM 48.2 °F - 46.4 °F 93% 30.12 in 6.2 mi Variable 1.2 mph - N/A Fog Shallow Fog
5:00 AM 47 °F - 46 °F 96%  in 31 mi WSW 6.7 mph - - Fog Patches of Fog
5:00 AM 46.4 °F - 46.4 °F 100% 30.12 in 6.2 mi West 2.3 mph - N/A Fog Shallow Fog
6:00 AM 47 °F - 46 °F 92%  in 31 mi West 6.7 mph - - Fog Patches of Fog
6:00 AM 46.4 °F - 46.4 °F 100% 30.15 in 6.2 mi Variable 1.2 mph - N/A Fog Shallow Fog
7:00 AM 52 °F - 48 °F 82%  in 31 mi West 6.7 mph - -   Clear
7:00 AM 51.8 °F - 48.2 °F 88% 30.15 in - West 3.5 mph - N/A   Clear
8:00 AM 54 °F - 49 °F 79%  in 31 mi WNW 4.5 mph - -   Clear
8:00 AM 55.4 °F - 50.0 °F 82% 30.15 in - West 3.5 mph - N/A   Clear
8:30 AM 55.4 °F - 50.0 °F 82% 30.15 in 6.2 mi Variable 2.3 mph - N/A   Partly Cloudy
9:00 AM 58 °F - 49 °F 65%  in 25 mi North 2.2 mph - -   Scattered Clouds
9:00 AM 57.2 °F - 50.0 °F 77% 30.15 in 6.2 mi WNW 3.5 mph - N/A   Partly Cloudy
9:30 AM 59.0 °F - 48.2 °F 67% 30.18 in 6.2 mi West 3.5 mph - N/A   Partly Cloudy
10:00 AM 60 °F - 46 °F 50%  in 25 mi WSW 4.5 mph - -   Scattered Clouds
10:00 AM 60.8 °F - 46.4 °F 59% 30.18 in 6.2 mi Variable 2.3 mph - N/A   Partly Cloudy
10:30 AM 62.6 °F - 44.6 °F 52% 30.18 in 6.2 mi ENE 3.5 mph - N/A   Partly Cloudy
11:00 AM 62 °F - 42 °F 36%  in 31 mi SW 4.5 mph - -   Scattered Clouds
11:00 AM 62.6 °F - 42.8 °F 48% 30.18 in 6.2 mi Variable 2.3 mph - N/A   Partly Cloudy
11:30 AM 62.6 °F - 41.0 °F 45% 30.18 in 6.2 mi Variable 3.5 mph - N/A   Partly Cloudy
12:00 PM 65 °F - 44 °F 34%  in 31 mi West 4.5 mph - -   Scattered Clouds
12:00 PM 64.4 °F - 41.0 °F 42% 30.15 in 6.2 mi Variable 3.5 mph - N/A   Partly Cloudy
12:30 PM 66.2 °F - 42.8 °F 43% 30.15 in - Variable 3.5 mph - N/A   Clear
1:00 PM 67 °F - 38 °F 23%  in 37 mi SSW 4.5 mph - -   Scattered Clouds
1:00 PM 68.0 °F - 35.6 °F 30% 30.15 in - ENE 5.8 mph - N/A   Clear
1:30 PM 68.0 °F - 37.4 °F 33% 30.15 in - Variable 2.3 mph - N/A   Clear
2:00 PM 69 °F - 42 °F 27%  in 37 mi ESE 6.7 mph - -   Scattered Clouds
2:00 PM 68.0 °F - 39.2 °F 35% 30.15 in - Variable 3.5 mph - N/A   Clear
2:30 PM 68.0 °F - 50.0 °F 52% 30.12 in 6.2 mi Variable 5.8 mph - N/A   Scattered Clouds
3:00 PM 68 °F - 50 °F 41%  in 37 mi ENE 11.2 mph - -   Partly Cloudy
3:00 PM 68.0 °F - 50.0 °F 52% 30.12 in 6.2 mi NE 9.2 mph - N/A   Scattered Clouds
3:30 PM 68.0 °F - 50.0 °F 52% 30.12 in 6.2 mi ESE 8.1 mph - N/A   Scattered Clouds
4:00 PM 69 °F - 50 °F 39%  in 37 mi ESE 11.2 mph - -   Partly Cloudy
4:00 PM 69.8 °F - 50.0 °F 49% 30.12 in - ESE 6.9 mph - N/A   Clear
4:30 PM 68.0 °F - 48.2 °F 49% 30.12 in - East 8.1 mph - N/A   Clear
5:00 PM 67 °F - 47 °F 37%  in 37 mi ENE 11.2 mph - -   Scattered Clouds
5:00 PM 68.0 °F - 48.2 °F 49% 30.12 in - ENE 11.5 mph - N/A   Clear
5:30 PM 68.0 °F - 46.4 °F 46% 30.12 in - East 11.5 mph - N/A   Clear
6:00 PM 67 °F - 46 °F 35%  in 37 mi East 8.9 mph - -   Scattered Clouds
6:00 PM 68.0 °F - 46.4 °F 46% 30.09 in - East 8.1 mph - N/A   Clear
6:30 PM 66.2 °F - 44.6 °F 46% 30.09 in - ENE 11.5 mph - N/A   Clear
7:00 PM 66 °F - 45 °F 35%  in 31 mi East 11.2 mph - -   Scattered Clouds
7:00 PM 66.2 °F - 44.6 °F 46% 30.09 in - East 10.4 mph - N/A   Clear
7:30 PM 66.2 °F - 46.4 °F 49% 30.09 in - East 10.4 mph - N/A   Clear
8:00 PM 64 °F - 43 °F 35%  in 31 mi East 6.7 mph - -   Clear
8:00 PM 64.4 °F - 42.8 °F 45% 30.09 in - East 6.9 mph - N/A   Clear
8:30 PM 62.6 °F - 44.6 °F 52% 30.12 in - East 5.8 mph - N/A   Clear
9:00 PM 59 °F - 41 °F 39%  in 31 mi East 6.7 mph - -   Clear
9:00 PM 59.0 °F - 41.0 °F 51% 30.12 in - ENE 6.9 mph - N/A   Clear
10:00 PM 58 °F - 42 °F 45%  in 31 mi East 6.7 mph - -   Clear
10:00 PM 57.2 °F - 42.8 °F 59% 30.12 in - East 5.8 mph - N/A   Clear
11:00 PM 61 °F - 47 °F 49%  in 25 mi NE 6.7 mph - -   Clear
11:00 PM 62.6 °F - 48.2 °F 59% 30.12 in - NE 5.8 mph - N/A   Clear